Regional Weather Roundup
Issued by NWS

Home | Current Version | Previous Version | Graphics & Text | Print | Product List | Glossary On
Versions: 1 2 3 4 5 6 7 8 9 10 11 12 13 14 15 16 17 18 19 20 21 22 23 24 25 26 27 28 29 30 31 32 33 34 35 36 37 38 39 40 41 42 43 44 45 46 47 48 49 50
574
ASUS44 KJAN 181410
RWRMS

MISSISSIPPI HOURLY WEATHER ROUNDUP
NATIONAL WEATHER SERVICE JACKSON MS
800 AM CST THU DEC 18 2014

NOTE: "FAIR: INDICATES FEW OR NO CLOUDS BELOW 12,000 FEET WITH NO
SIGNIFICANT WEATHER AND/OR OBSTRUCTIONS TO VISIBILITY.

MSZ001>002-007>008-010>013-018>021-025>028-034>036-181500-
NORTHWEST MISSISSIPPI

CITY           SKY/WX    TMP DP  RH WIND       PRES   REMARKS
CLARKSDALE     CLOUDY    39  39 100 E5        30.24R
CLEVELAND      CLOUDY    41  41  99 SE8       30.21F
GREENWOOD      LGT RAIN  42  42 100 NE5       30.24R FOG
GREENVILLE     CLOUDY    43  40  89 SE7       30.22S FOG
GRENADA        RAIN      39  37  93 CALM      30.24F
OLIVE BRANCH   CLOUDY    36  36 100 E5        30.23S FOG     WCI  32
OXFORD         CLOUDY    37  36  93 N3        30.25R
TUNICA         CLOUDY    39  36  87 NE3       30.25R
$$

MSZ003>006-009-014>017-022>024-029>033-037>039-181500-
NORTHEAST MISSISSIPPI

CITY           SKY/WX    TMP DP  RH WIND       PRES   REMARKS
COLUMBUS AFB   CLOUDY    41  34  75 SE8       30.21F
CORINTH        CLOUDY    39  36  87 CALM      30.23R
GOLDN TRIANGLE CLOUDY    41  34  75 E5        30.22R
STARKVILLE     CLOUDY    41  36  81 E5        30.21F
TUPELO         CLOUDY    41  36  82 CALM      30.22R
$$

MSZ040-058-181500-
CENTRAL MISSISSIPPI

CITY           SKY/WX    TMP DP  RH WIND       PRES   REMARKS
JACKSON INTL   CLOUDY    46  39  76 SE5       30.20R
JACKSON HAWKNS CLOUDY    46  38  73 SE6       30.19R
MERIDIAN KEY   PTSUNNY   42  37  82 E5        30.22F
MERIDIAN NAS   NOT AVBL
RAYMOND        CLOUDY    46  41  81 E9        30.19S
VICKSBURG      CLOUDY    48  40  73 NE5       30.21R
$$

MSZ059>079-181500-
SOUTH MISSISSIPPI

CITY           SKY/WX    TMP DP  RH WIND       PRES   REMARKS
HATTIESBURG    PTSUNNY   45  41  86 SE5       30.22S
MCCOMB         CLOUDY    47  41  80 CALM      30.19R
NATCHEZ        CLOUDY    52  41  66 SE8       30.16F
PINE BELT      PTSUNNY   45  37  76 E5        30.21F
$$

MSZ080>082-181500-
COASTAL MISSISSIPPI

CITY           SKY/WX    TMP DP  RH WIND       PRES   REMARKS
BAY ST LOUIS   MOSUNNY   46  37  71 VRB5      30.21R
BILOXI         SUNNY     46  41  82 NE8       30.22R
PASCAGOULA     PTSUNNY   45  41  86 N5        30.23R
GULFPORT       SUNNY     47  41  80 E3        30.21R
$$



USA.gov is the U.S. government's official web portal to all federal, state and local government web resources and services.